^^
Meteo Knjazevac Station Historical Data
Daily Summary for September 1, 2021 Units:  Metric    English   Both
Daily Weekly Monthly Yearly Custom
  High: Low: Average:
Temperature: 14.6 °C 11.7 °C 13.7 °C
Dew Point: 10 °C 9.1 °C 9.6 °C
Humidity: 84% 73% 76%
Wind Speed: 8km/h 0km/h 3.7km/h
Wind Gust: 16.1km/h - -
Wind- - SW
Pressure: 1027.3 hPa 1027.3 hPa -
Precipitation: 0 mm    
Historical Graphs
 
 
Tabular Data for September 1, 2021
Time Temperature Dew Point Pressure Wind Wind Speed Wind Gust Humidity Rainfall Rate (Hourly) solar Conditions
00:00 14.6 °C 10 °C 1027.3 hPa North 3.2 km/h 11.3 km/h 74% 0 mm 0 W/m2
00:10 14.6 °C 10 °C 1027.3 hPa North 4.8 km/h 12.9 km/h 74% 0 mm 0 W/m2
00:20 14.5 °C 9.9 °C 1027.3 hPa North 8 km/h 12.9 km/h 74% 0 mm 0 W/m2
00:30 14.5 °C 9.9 °C 1027.3 hPa North 4.8 km/h 9.7 km/h 74% 0 mm 0 W/m2
00:40 14.5 °C 9.7 °C 1027.3 hPa North 4.8 km/h 12.9 km/h 73% 0 mm 0 W/m2
00:50 14.5 °C 9.7 °C 1027.3 hPa North 8 km/h 12.9 km/h 73% 0 mm 0 W/m2
01:00 14.4 °C 9.6 °C 1027.3 hPa North 4.8 km/h 11.3 km/h 73% 0 mm 0 W/m2
01:10 14.4 °C 9.8 °C 1027.3 hPa North 3.2 km/h 9.7 km/h 74% 0 mm 0 W/m2
01:20 14.3 °C 9.5 °C 1027.3 hPa North 8 km/h 11.3 km/h 73% 0 mm 0 W/m2
01:30 14.2 °C 9.4 °C 1027.3 hPa North 4.8 km/h 12.9 km/h 73% 0 mm 0 W/m2
01:40 14.1 °C 9.6 °C 1027.3 hPa NNW 3.2 km/h 16.1 km/h 74% 0 mm 0 W/m2
01:50 14 °C 9.4 °C 1027.3 hPa NNW 1.6 km/h 9.7 km/h 74% 0 mm 0 W/m2
02:00 13.9 °C 9.6 °C 1027.3 hPa NNW 3.2 km/h 8 km/h 75% 0 mm 0 W/m2
02:10 13.8 °C 9.4 °C 1027.3 hPa North 1.6 km/h 8 km/h 75% 0 mm 0 W/m2
02:20 13.6 °C 9.6 °C 1027.3 hPa North 1.6 km/h 8 km/h 77% 0 mm 0 W/m2
02:30 13.2 °C 9.6 °C 1027.3 hPa East 3.2 km/h 6.4 km/h 79% 0 mm 0 W/m2
02:40 12.8 °C 9.4 °C 1027.3 hPa SSE 1.6 km/h 4.8 km/h 80% 0 mm 0 W/m2
02:50 12.4 °C 9.2 °C 1027.3 hPa SSE 3.2 km/h 6.4 km/h 81% 0 mm 0 W/m2
03:00 12.2 °C 9.4 °C 1027.3 hPa SSE 1.6 km/h 4.8 km/h 83% 0 mm 0 W/m2
03:10 12 °C 9.2 °C 1027.3 hPa South 1.6 km/h 3.2 km/h 83% 0 mm 0 W/m2
03:20 11.7 °C 9.1 °C 1027.3 hPa Calm   3.2 km/h 84% 0 mm 0 W/m2
Knjazevac, Serbia
Compliments of Weather Underground - 2 mb